SCP
0 -0 -0 -0 -0 -0 -0 -0 0 0 0 0 0 0 0 -0 0 0 0 0 0 -0 -0 -0 -0 0 0 0 0 0 0 0
0 -0 -0 0 0 0 0 0 0 0 -0 0 -0 -0 -0 -0 -0 -0 -0 -0 -0 -0 -0 -0 -0 -0 -0 -0 0 0 0 0
-0 0 -0 -0 -0 -0 -0 -0 -0 0 -0 0 -0 -0 -0 -0 -0 -0 -0 0 -0 -0 -0 -0 -0 -0 -0 -0 0 -0 -0 -0
0 0 -0 -0 -0 -0 -0 -0 -0 -0 -0 -0 -0 0 0 -0 0 -0 0 0 0 0 -0 -0 -0 0 0 0 0 0 0 0
-0 0 -0 -0 0 -0 -0 -0 -0 -0 0 -0 0 0 0 0 0 0 0 0 0 0 0 0 0 0 0 0 0 0 0 0
0 0 0 0 0 0 0 0 0 -0 -0 0 0 0 0 0 0 0 0 0 0 0 0 0 0 0 0 0 0 0 0 0
0 0 0 0 0 0 0 0 0 0 0 0 0 0 0 0 0 0 0 0 0 0 0 0 0 0 0 0 0 0 0 0
0 0 0 0 0 0 0 0 0 0 0 0 0 0 0 0 0 0 0 0 0 0 0 0 0 0 0 0 0 0 0 0
0 0 0 0 0 0 0 0 0 0 0 0 0 0 0 0 0 0 0 0 0 0 0 0 0 0 0 0 0 0 0 0
1 0 0 0 0 0 0 0 0 0 0 0 0 0 0 0 0 0 0 0 0 0 0 0 0 0 0 0 0 0 0 0
0 0 0 0 0 0 0 0 0 0 0 0 0 0 0 0 0 0 0 0 0 0 0 0 0 0 0 0 0 0 0 0
0 0 0 0 0 0 0 0 0 0 0 0 0 0 0 0 0 0 0 0 0 0 0 0 0 0 0 0 0 0 0 0
0 0 0 0 0 0 0 0 0 0 0 0 0 0 0 0 0 0 0 0 0 0 0 0 0 0 0 0 0 0 0 0
0 0 0 0 0 0 0 0 0 0 0 0 0 0 0 0 0 0 0 0 0 0 0 0 0 0 0 0 0 0 0 0
0 0 0 0 0 0 0 0 0 0 0 0 0 0 0 0 0 0 0 0 0 0 0 0 0 0 0 0 0 0 0 0
0 0 0 0 0 0 0 0 0 0 0 0 0 0 0 0 0 0 0 0 0 0 0 0 0 0 0 0 0 0 0 0
0 0 0 0 0 0 0 0 0 0 0 0 0 0 0 0 0 0 0 0 0 0 0 0 0 0 0 0 0 0 0 0
0 0 0 -0 0 0 0 0 0 0 0 0 0 0 0 0 0 0 0 0 0 0 0 0 0 0 0 0 0 0 0 0
0 0 0 0 0 0 0 0 0 0 0 0 0 0 0 0 0 0 0 0 0 0 0 0 0 0 0 0 0 0 0 0
0 0 0 0 0 0 0 0 0 0 0 0 0 0 0 0 0 0 0 0 0 0 0 0 0 0 0 0 0 0 0 0
Wind_Speed_500mb
28 23 18 13 11 10 8 8 8 9 11 11 15 18 18 19 19 21 21 23 25 24 29 23 22 17 17 19 16 12 4 14
26 22 18 16 17 15 11 14 14 15 14 13 16 18 21 21 23 24 25 26 28 32 34 34 28 22 24 24 18 11 9 14
21 20 20 22 18 18 15 16 15 14 14 12 18 20 21 25 28 26 28 28 31 31 34 37 38 32 30 33 29 19 20 22
17 13 19 23 19 18 18 17 12 13 11 12 14 15 18 21 23 25 27 28 29 31 34 40 45 40 39 36 35 31 27 25
21 15 13 18 13 10 9 10 12 11 11 12 7 11 17 19 21 26 29 28 31 35 42 46 51 47 43 42 38 35 33 32
22 12 15 19 13 12 6 4 4 6 8 9 5 6 9 12 18 22 26 26 30 37 42 47 50 50 46 45 44 42 36 34
29 23 22 19 14 11 14 12 5 3 4 2 8 8 8 10 14 15 15 18 25 30 35 42 50 47 45 50 49 48 44 41
40 30 24 20 21 20 17 18 16 12 8 6 13 15 14 11 16 17 19 22 26 30 39 46 49 48 47 42 48 52 55 52
52 40 16 12 19 14 17 18 15 13 9 14 18 16 14 17 16 19 26 31 33 39 45 52 51 47 47 42 40 37 42 46
54 53 22 16 18 16 20 18 16 19 19 24 25 22 21 18 26 38 46 55 55 56 58 57 51 51 51 49 48 47 42 43
64 45 29 22 25 24 26 24 19 23 18 19 21 16 24 32 38 57 63 62 61 56 56 53 51 51 54 56 55 48 39 38
38 22 15 22 33 33 34 29 24 19 9 14 24 26 30 39 53 65 52 41 45 56 45 48 54 61 62 61 60 58 57 54
32 30 33 39 37 35 28 22 7 8 14 19 22 29 39 54 60 54 43 36 36 40 48 56 57 62 68 76 79 76 65 59
20 22 38 36 30 12 3 4 9 18 22 22 35 42 56 52 40 35 28 31 36 39 45 53 57 62 70 80 62 77 68 47
16 12 10 8 2 6 12 16 22 24 33 39 43 45 38 38 30 29 33 41 48 49 51 55 63 64 68 58 52 44 60 56
16 15 9 5 14 26 33 34 37 39 42 36 32 36 32 30 38 47 54 52 52 57 59 60 61 61 54 49 48 54 40 50
19 22 23 31 34 41 44 43 43 43 39 37 30 23 26 39 56 56 49 47 46 53 53 51 51 48 55 47 50 50 48 57
24 27 26 30 35 39 37 37 39 35 26 20 25 31 40 51 54 45 39 44 58 54 51 45 43 37 38 42 46 40 54 58
23 25 29 30 26 26 32 35 31 21 19 26 42 42 50 36 37 33 41 52 59 51 52 55 61 60 53 50 55 59 55 59
11 15 23 25 31 27 24 18 18 23 52 60 74 51 39 33 30 41 53 51 49 52 48 40 36 40 42 41 42 43 42 43
Wind_Direction_500mb
129 126 125 124 135 134 137 119 80 60 57 50 53 52 56 43 37 31 27 12 13 26 10 5 1 2 353 333 334 335 250 235
126 119 111 108 122 116 95 81 84 82 83 75 74 53 59 52 43 32 22 17 19 16 23 18 19 5 359 352 338 321 273 262
133 134 119 100 102 101 96 94 98 105 99 91 69 72 63 47 27 19 13 9 9 12 11 11 8 7 3 2 353 324 300 297
158 140 132 112 107 112 115 100 109 118 85 85 72 65 51 37 24 16 13 6 5 3 0 360 360 359 0 1 358 350 331 309
171 154 147 139 128 137 133 107 96 103 73 70 86 54 39 28 24 20 12 5 359 353 352 349 349 344 346 349 348 354 356 350
175 169 165 151 157 166 168 132 54 69 45 53 63 53 38 30 20 13 7 356 348 343 341 338 334 335 334 332 332 333 333 342
183 173 172 169 186 207 189 190 179 192 309 347 11 10 356 4 360 354 354 337 329 330 325 321 318 322 317 318 318 319 320 320
189 177 171 168 195 201 222 211 197 197 238 311 315 321 322 313 311 328 326 319 317 313 310 310 311 310 305 305 308 309 309 309
196 195 202 192 204 212 223 212 195 199 218 243 264 263 255 266 274 287 307 317 310 308 306 302 301 298 299 298 293 306 312 318
206 200 210 205 230 230 206 178 208 213 221 242 245 238 239 273 295 303 308 306 303 307 309 303 295 292 292 294 300 304 306 304
206 209 246 241 209 196 193 198 211 228 233 233 227 259 297 306 309 311 307 299 294 309 306 297 297 295 296 297 298 304 310 309
209 217 178 174 188 186 189 218 224 222 243 328 310 307 309 303 301 302 304 307 304 304 298 297 301 306 303 299 298 296 297 305
144 149 167 181 188 196 212 204 202 312 308 312 302 296 291 298 301 300 300 297 298 295 297 301 304 306 310 309 308 306 304 295
129 165 186 193 185 189 170 297 300 308 311 289 280 279 291 302 294 291 291 298 303 306 307 309 311 316 317 314 315 309 307 302
141 131 139 187 307 336 308 294 293 282 289 291 294 306 312 303 293 297 308 312 315 316 312 312 314 314 312 311 313 310 313 306
86 87 69 358 320 327 320 307 302 301 304 303 303 304 301 298 304 311 319 322 325 326 321 317 314 313 312 310 309 307 315 315
18 359 353 353 343 337 336 323 313 309 301 296 292 280 290 307 317 318 321 320 325 320 313 315 315 312 314 318 314 311 307 310
347 343 336 330 325 327 319 306 297 291 284 270 283 302 319 321 312 321 325 318 325 319 314 312 313 311 306 309 311 319 316 314
335 336 336 327 317 300 285 281 275 261 271 318 316 318 312 292 297 306 312 315 318 312 310 305 302 303 303 306 304 306 306 302
14 322 313 310 305 290 270 263 275 310 322 316 311 302 286 281 286 309 319 321 313 308 311 323 327 327 323 319 314 312 312 308
Wind_Speed_850mb
28 23 18 13 11 10 8 8 8 9 11 11 15 18 18 19 19 21 21 23 25 24 29 23 22 17 17 19 16 12 4 14
26 22 18 16 17 15 11 14 14 15 14 13 16 18 21 21 23 24 25 26 28 32 34 34 28 22 24 24 18 11 9 14
21 20 20 22 18 18 15 16 15 14 14 12 18 20 21 25 28 26 28 28 31 31 34 37 38 32 30 33 29 19 20 22
17 13 19 23 19 18 18 17 12 13 11 12 14 15 18 21 23 25 27 28 29 31 34 40 45 40 39 36 35 31 27 25
21 15 13 18 13 10 9 10 12 11 11 12 7 11 17 19 21 26 29 28 31 35 42 46 51 47 43 42 38 35 33 32
22 12 15 19 13 12 6 4 4 6 8 9 5 6 9 12 18 22 26 26 30 37 42 47 50 50 46 45 44 42 36 34
29 23 22 19 14 11 14 12 5 3 4 2 8 8 8 10 14 15 15 18 25 30 35 42 50 47 45 50 49 48 44 41
40 30 24 20 21 20 17 18 16 12 8 6 13 15 14 11 16 17 19 22 26 30 39 46 49 48 47 42 48 52 55 52
52 40 16 12 19 14 17 18 15 13 9 14 18 16 14 17 16 19 26 31 33 39 45 52 51 47 47 42 40 37 42 46
54 53 22 16 18 16 20 18 16 19 19 24 25 22 21 18 26 38 46 55 55 56 58 57 51 51 51 49 48 47 42 43
64 45 29 22 25 24 26 24 19 23 18 19 21 16 24 32 38 57 63 62 61 56 56 53 51 51 54 56 55 48 39 38
38 22 15 22 33 33 34 29 24 19 9 14 24 26 30 39 53 65 52 41 45 56 45 48 54 61 62 61 60 58 57 54
32 30 33 39 37 35 28 22 7 8 14 19 22 29 39 54 60 54 43 36 36 40 48 56 57 62 68 76 79 76 65 59
20 22 38 36 30 12 3 4 9 18 22 22 35 42 56 52 40 35 28 31 36 39 45 53 57 62 70 80 62 77 68 47
16 12 10 8 2 6 12 16 22 24 33 39 43 45 38 38 30 29 33 41 48 49 51 55 63 64 68 58 52 44 60 56
16 15 9 5 14 26 33 34 37 39 42 36 32 36 32 30 38 47 54 52 52 57 59 60 61 61 54 49 48 54 40 50
19 22 23 31 34 41 44 43 43 43 39 37 30 23 26 39 56 56 49 47 46 53 53 51 51 48 55 47 50 50 48 57
24 27 26 30 35 39 37 37 39 35 26 20 25 31 40 51 54 45 39 44 58 54 51 45 43 37 38 42 46 40 54 58
23 25 29 30 26 26 32 35 31 21 19 26 42 42 50 36 37 33 41 52 59 51 52 55 61 60 53 50 55 59 55 59
11 15 23 25 31 27 24 18 18 23 52 60 74 51 39 33 30 41 53 51 49 52 48 40 36 40 42 41 42 43 42 43
Wind_Direction_850mb
129 126 125 124 135 134 137 119 80 60 57 50 53 52 56 43 37 31 27 12 13 26 10 5 1 2 353 333 334 335 250 235
126 119 111 108 122 116 95 81 84 82 83 75 74 53 59 52 43 32 22 17 19 16 23 18 19 5 359 352 338 321 273 262
133 134 119 100 102 101 96 94 98 105 99 91 69 72 63 47 27 19 13 9 9 12 11 11 8 7 3 2 353 324 300 297
158 140 132 112 107 112 115 100 109 118 85 85 72 65 51 37 24 16 13 6 5 3 0 360 360 359 0 1 358 350 331 309
171 154 147 139 128 137 133 107 96 103 73 70 86 54 39 28 24 20 12 5 359 353 352 349 349 344 346 349 348 354 356 350
175 169 165 151 157 166 168 132 54 69 45 53 63 53 38 30 20 13 7 356 348 343 341 338 334 335 334 332 332 333 333 342
183 173 172 169 186 207 189 190 179 192 309 347 11 10 356 4 360 354 354 337 329 330 325 321 318 322 317 318 318 319 320 320
189 177 171 168 195 201 222 211 197 197 238 311 315 321 322 313 311 328 326 319 317 313 310 310 311 310 305 305 308 309 309 309
196 195 202 192 204 212 223 212 195 199 218 243 264 263 255 266 274 287 307 317 310 308 306 302 301 298 299 298 293 306 312 318
206 200 210 205 230 230 206 178 208 213 221 242 245 238 239 273 295 303 308 306 303 307 309 303 295 292 292 294 300 304 306 304
206 209 246 241 209 196 193 198 211 228 233 233 227 259 297 306 309 311 307 299 294 309 306 297 297 295 296 297 298 304 310 309
209 217 178 174 188 186 189 218 224 222 243 328 310 307 309 303 301 302 304 307 304 304 298 297 301 306 303 299 298 296 297 305
144 149 167 181 188 196 212 204 202 312 308 312 302 296 291 298 301 300 300 297 298 295 297 301 304 306 310 309 308 306 304 295
129 165 186 193 185 189 170 297 300 308 311 289 280 279 291 302 294 291 291 298 303 306 307 309 311 316 317 314 315 309 307 302
141 131 139 187 307 336 308 294 293 282 289 291 294 306 312 303 293 297 308 312 315 316 312 312 314 314 312 311 313 310 313 306
86 87 69 358 320 327 320 307 302 301 304 303 303 304 301 298 304 311 319 322 325 326 321 317 314 313 312 310 309 307 315 315
18 359 353 353 343 337 336 323 313 309 301 296 292 280 290 307 317 318 321 320 325 320 313 315 315 312 314 318 314 311 307 310
347 343 336 330 325 327 319 306 297 291 284 270 283 302 319 321 312 321 325 318 325 319 314 312 313 311 306 309 311 319 316 314
335 336 336 327 317 300 285 281 275 261 271 318 316 318 312 292 297 306 312 315 318 312 310 305 302 303 303 306 304 306 306 302
14 322 313 310 305 290 270 263 275 310 322 316 311 302 286 281 286 309 319 321 313 308 311 323 327 327 323 319 314 312 312 308